Flag for Greenland Weather past 2 weeks in Ilulissat, Greenland

Now
-6 °F

Snow. Overcast.


Feels Like: -29 °F
Forecast: -13 / 0 °F
Wind: 18 mph from South

Location: Jacobshavn Lufthavn

Current Time: Jan 27, 2015 at 3:57:30 PM

Latest Report: Jan 27, 2015 at 3:20 PM


Visibility: 1 mi

Pressure: 29.71 "Hg

Humidity: 77%

Dew point: -11 °F

Location of IlulissatLocation

Historic Weather in Ilulissat — Graph

°F

Ilulissat temperature yesterday

Maximum temperature yesterday: 1 °F (at 12:50 PM)
Minimum temperature yesterday: -11 °F (at 8:50 AM)
Average temperature yesterday: -3 °F

Past Weeks' High & Low Weather Summary

 TemperatureHumidityPressure
High30 °F (Jan 18, 12:50 AM)93% (Jan 18, 7:50 PM)30.07 "Hg (Jan 18, 7:50 PM)
Low-17 °F (Jan 23, 5:50 AM)38% (Jan 13, 5:50 PM)28.85 "Hg (Jan 26, 11:50 AM)
Average3 °F62%29.57 "Hg
* Reported Jan 12 2:50 PM — Jan 27 2:50 PM, Ilulissat, Weather by CustomWeather, © 2014

Note: Actual official high and low records may vary slightly from our data, if they occured in-between our weather recording intervals... More about our weather records

Advertising

Ilulissat weather history for previous 24 hours

 ConditionsComfort  
Time TempWeatherWind HumidityBarometerVisibility
2:50 PM
Jan 27
-6 °FLight snow. Mostly cloudy.18 mph77%29.68 "Hg1 mi
1:50 PM-6 °FLight snow. Partly sunny.20 mph77%29.62 "Hg4 mi
12:50 PM-6 °FSnow. Mostly cloudy.18 mph84%29.59 "Hg1 mi
11:50 AM-2 °FSnow. Mostly cloudy.20 mph77%29.50 "Hg1 mi
10:50 AM-2 °FLight snow. Mostly cloudy.23 mph77%29.45 "Hg1 mi
9:50 AM-2 °FLight snow. Mostly cloudy.17 mph77%29.39 "Hg2 mi
8:50 AM-2 °FLight snow. Mostly cloudy.15 mph77%29.36 "Hg4 mi
7:50 AM-2 °FLight snow. Mostly cloudy.13 mph77%29.30 "Hg3 mi
6:50 AM-2 °FLight snow. Mostly cloudy.17 mph77%29.24 "Hg3 mi
5:50 AM-2 °FSnow flurries. Mostly cloudy.14 mph77%29.18 "Hg4 mi
4:50 AM0 °FSnow flurries. Ice fog.15 mph78%29.15 "Hg1 mi
3:50 AM0 °FLight snow. Ice fog.12 mph78%29.09 "Hg1 mi
2:50 AM0 °FLight snow. Ice fog.9 mph78%29.06 "Hg1 mi
1:50 AM0 °FLight snow. Ice fog.8 mph78%29.06 "Hg1 mi
12:50 AM0 °FSnow flurries. Overcast.8 mph78%29.03 "Hg4 mi
11:50 PM
Jan 26
0 °FSnow flurries. Overcast.7 mph71%29.00 "HgN/A
10:50 PM0 °FSnow flurries. Overcast.8 mph71%29.00 "HgN/A
9:50 PM0 °FSnow flurries. Overcast.9 mph71%29.00 "HgN/A
8:50 PM0 °FLight snow. Passing clouds.10 mph71%29.00 "HgN/A
7:50 PM0 °FLight snow. Passing clouds.12 mph71%29.00 "HgN/A
6:50 PM0 °FLight snow. Passing clouds.13 mph71%28.97 "HgN/A
5:50 PM0 °FLight snow. Passing clouds.14 mph71%28.94 "HgN/A
4:50 PM0 °FLight snow. Passing clouds.14 mph71%28.94 "HgN/A
3:50 PM0 °FLight snow. Passing clouds.13 mph71%28.88 "HgN/A
Weather by CustomWeather, © 2014

See weather overviewHow to use our weather pages